Location: Brookfield Center
(41.2406°N, 80.5579°W)
Time: 01:18:34
(UTC+00:00)

Cosmos 1703 - Pass Details

Date: 18 January 2020
Orbit: 523 x 541 km, 82.5° (Epoch: 28 February)

Event Time Altitude Azimuth Distance (km) Brightness Sun altitude
Rises 11:43:42 0° 352° (N) 2,707 6.6 -11.4°
Reaches altitude 10° 11:45:52 10° 352° (N) 1,808 5.7 -11.0°
Maximum altitude 11:49:51 90° 249° (WSW) 543 3.3 -10.3°
Drops below altitude 10° 11:53:47 10° 174° (S) 1,783 6.3 -9.6°
Sets 11:55:54 0° 174° (S) 2,666 7.2 -9.2°
